Regional Weather Roundup
Issued by NWS

Home | Current Version | Previous Version | Text Only | Print | Product List | Glossary On
Versions: 1 2 3 4 5 6 7 8 9 10 11 12 13 14 15 16 17 18 19 20 21 22 23 24 25 26 27 28 29 30 31 32 33 34 35 36 37 38 39 40 41 42 43 44 45 46 47 48 49 50
759
ASUS42 KFFC 290410
RWRGA
WEATHER ROUNDUP FOR GEORGIA
NATIONAL WEATHER SERVICE PEACHTREE CITY GA
1200 AM EDT MON MAY 29 2017

NOTE: "FAIR" INDICATES FEW OR NO CLOUDS BELOW 12,000 FEET WITH NO
SIGNIFICANT WEATHER AND/OR OBSTRUCTIONS TO VISIBILITY.

* = USE WITH CAUTION. THE STATIONS MARKED WITH AN ASTERISK MAY NOT
REPORT WEATHER SUCH AS PRECIPITATION, FOG, OR THUNDER AND ARE NOT
QUALITY CONTROLLED BY NWS.

THE REMARK "TC" DENOTES TEMPERATURE READING IN DEGREES CELSIUS.

GAZ001>058-290500-
NORTH GEORGIA

CITY           SKY/WX    TMP DP  RH WIND       PRES   REMARKS
ATLANTA        MOCLDY    73  64  73 SW7       29.96R
ATHENS         CLOUDY    69  67  93 CALM      29.93S
CHAMBLEE       CLOUDY    72  62  71 W7        29.96R
PEACHTREE CITY CLOUDY    71  68  90 VRB3      29.98R
ROME           CLEAR     69  68  96 CALM      29.93R
WEST ATLANTA   CLOUDY    72  66  81 SW5       29.95R
GAINESVILLE    CLEAR     68  65  90 W3        29.97R
CARTERSVILLE   CLEAR     67  67 100 CALM      29.95R


CITY           SKY/WX    TMP DP  RH WIND       PRES   REMARKS
DALTON*        CLEAR     66  66 100 CALM      29.94S
MARIETTA       CLOUDY    72  63  72 W6        29.96R
CANTON*        CLEAR     68  63  83 W3        29.96S
$$

GAZ059>098-102>109-290500-
CENTRAL GEORGIA

CITY           SKY/WX    TMP DP  RH WIND       PRES   REMARKS
AUGUSTA-BUSH   CLEAR     73  70  90 CALM      29.90R
AUGUSTA-DANIEL CLEAR     81  63  54 W6        29.92R
COLUMBUS       PTCLDY    77  68  73 W6        29.97R
MACON          PTCLDY    73  68  84 W3        29.96R
ROBINS AFB     PTCLDY    78  69  73 W7        29.95R


CITY           SKY/WX    TMP DP  RH WIND       PRES   REMARKS
LAGRANGE*      CLEAR     70  70 100 CALM      29.98F
SYLVANIA*      CLEAR     75  71  87 CALM      29.92S
MILLEDGEVILLE* PTCLDY    73  70  88 W3        29.95R
$$

GAZ099>101-110>166-290500-
SOUTH GEORGIA

CITY           SKY/WX    TMP DP  RH WIND       PRES   REMARKS
SAVANNAH       CLEAR     77  68  73 S3        29.92S
VALDOSTA       CLOUDY    77  74  90 VRB3      29.98R
ALMA           CLOUDY    81  70  69 SW6       29.96R
ST SIMONS      CLEAR     82  71  69 SW10      29.94R
FT STEWART     CLEAR     75  68  79 CALM      29.91R
ALBANY         PTCLDY    77  73  87 SW7       30.00R
HUNTER AFB     CLEAR     77  72  86 CALM      29.90R
MOODY AFB      CLOUDY    80  74  82 SW6       29.96R
BRUNSWICK      CLEAR     81  73  78 SW10      29.95S


CITY           SKY/WX    TMP DP  RH WIND       PRES   REMARKS
BAINBRIDGE*    CLOUDY    79  72  78 NW7       30.00R
MOULTRIE*      PTCLDY    79  72  78 W7        30.00R
VIDALIA*       CLEAR     82  68  61 W9        29.95R
WAYCROSS*      CLOUDY    82  78  86 W6        29.96R HX  92
DOUGLAS*       MOCLDY    81  70  69 W6        29.99R
$$




USA.gov is the U.S. government's official web portal to all federal, state and local government web resources and services.